Regional Weather Roundup
Issued by NWS Sterling, VA

Home | Current Version | Previous Version | Graphics & Text | Print | Product List | Glossary On
Versions: 1 2 3 4 5 6 7 8 9 10 11 12 13 14 15 16 17 18 19 20 21 22 23 24 25 26 27 28 29 30 31 32 33 34 35 36 37 38 39 40 41 42 43 44 45 46 47 48 49 50
000
ASUS41 KLWX 040910
RWRLWX

REGIONAL WEATHER ROUNDUP
NATIONAL WEATHER SERVICE BALTIMORE MD/WASHINGTON DC
500 AM EDT SAT JUL 04 2015

Note: "FAIR" indicates few or no clouds below 12,000 feet
with no significant weather and/or obstructions to visibility.
 TC=TEMPERATURE CELSIUS

 * =Non NWS site. Station does not report precipitation (e.g. rain,
    snow, etc.), thunder, or fog.

DCZ001-MDZ009-015-VAZ040>042-051-053>054-041000-
WASHINGTON METRO

CITY           SKY/WX    TMP DP  RH WIND       PRES   REMARKS
WASHINGTON NAT CLOUDY    73  68  84 N3        29.88F
DULLES         CLOUDY    70  66  87 CALM      29.89S
ANDREWS AFB    MOCLDY    69  69  99 NE6       29.87F
FT BELVOIR     PTCLDY    68  66  94 CALM      29.87S
QUANTICO       CLOUDY    71  66  84 NW5       29.88S
COLLEGE PARK*  MOCLDY    68  68 100 NW3       29.88F
LEESBURG*      DRIZZLE   70  70 100 SE3       29.90F
MANASSAS*      CLOUDY    70  70 100 CALM        N/A
GAITHERSBURG*  CLOUDY    68  63  83 CALM      29.93F

$$

MDZ006>007-011-014-041000-
BALTIMORE METRO

CITY           SKY/WX    TMP DP  RH WIND       PRES   REMARKS
BWI AIRPORT    CLOUDY    70  67  90 E6        29.88F
MD SCIENCE CTR   N/A     72  66  81 MISG      29.89F
MARTIN STATE   MOCLDY    72  68  88 CALM      29.90F
ANNAPOLIS      CLOUDY    72  67  84 E5        29.87F
FORT MEADE*    CLOUDY    68  64  88 NE5       29.91S

$$

MDZ012-015-019>023-041000-
MARYLAND EASTERN SHORE

CITY           SKY/WX    TMP DP  RH WIND       PRES   REMARKS
OCEAN CITY     CLOUDY    74  69  85 E10       29.85F
SALISBURY      CLOUDY    70  68  93 NE6       29.85F
BAY BRIDGE AP*   N/A     70  66  88 CALM      29.88F
CAMBRIDGE*     MOCLDY    70  68  94 CALM      29.86S
EASTON*        MOCLDY    70  70 100 NE5       29.91F FOG

$$

MDZ017>025-041000-
SOUTHERN MARYLAND

CITY           SKY/WX    TMP DP  RH WIND       PRES   REMARKS
PATUXENT RIVER CLOUDY    72  69  90 E8        29.85F
ST INIGOES     CLOUDY    73  69  87 E7        29.84F
LEONARDTOWN*   CLOUDY    70  66  88 CALM      29.88S

$$

MDZ003>005-041000-
NORTH CENTRAL MARYLAND

CITY           SKY/WX    TMP DP  RH WIND       PRES   REMARKS
FREDERICK*     CLOUDY    64  64 100 CALM      29.92F FOG
HAGERSTOWN APT LGT RAIN  67  62  84 NE5       29.90S
WESTMINSTER*   NOT AVBL

$$

MDZ501>502-041000-
WESTERN MARYLAND

CITY           SKY/WX    TMP DP  RH WIND       PRES   REMARKS
OAKLAND*       CLOUDY    61 N/A N/A S7        29.93F FOG
CUMBERLAND*    CLOUDY    66  66 100 CALM      29.92S

$$

VAZ025>031-041000-
SHENANDOAH VALLEY

CITY           SKY/WX    TMP DP  RH WIND       PRES   REMARKS
WINCHESTER*    CLOUDY    68  66  94 CALM      29.89F
FRONT ROYAL*   PTSUNNY   64  64 100 CALM      29.88S
LURAY*         DRIZZLE   68  68 100 CALM      29.90S
NEW MARKET*    CLOUDY    65  65  99 CALM      29.89S
STAUNTON*      CLOUDY    67  66  94 CALM      29.93S FOG
WAYNESBORO*    CLOUDY    65  65 100 CALM      29.92S

$$

WVZ021-048>050-054>055-041000-
EASTERN WEST VIRGINIA PANHANDLE

CITY           SKY/WX    TMP DP  RH WIND       PRES   REMARKS
MARTINSBURG    LGT RAIN  67  64  90 CALM      29.90S FOG
PETERSBURG*    CLOUDY    64  61  91 CALM      29.90F FOG

$$

VAZ036>039-050-041000-
CENTRAL FOOTHILLS

CITY           SKY/WX    TMP DP  RH WIND       PRES   REMARKS
CHARLOTTESVILL CLOUDY    69  66  90 CALM      29.89S FOG
CULPEPER*      CLOUDY    67  67 100 CALM      29.90S FOG
ORANGE*        CLOUDY    70  66  88 CALM      29.90S
GORDONSVILLE*  CLOUDY    68  66  94 CALM      29.89R
WARRENTON*     CLOUDY    69  69  99 CALM      29.88F FOG

$$

VAZ055>057-041000-
NORTH AND CENTRAL PIEDMONT

CITY           SKY/WX    TMP DP  RH WIND       PRES   REMARKS
FREDERICKSBRG* MOCLDY    71  71 100 CALM      29.86F
STAFFORD*      CLOUDY    67  65  94 CALM      29.92S FOG

$$

NCZ024-NYZ072-PAZ021-071-VAZ022-071-041000-
OTHER REGIONAL OBSERVATIONS

CITY           SKY/WX    TMP DP  RH WIND       PRES   REMARKS
NEW YORK CITY  CLOUDY    70  60  70 CALM      29.98F
PHILADELPHIA   CLOUDY    70  66  87 NE3       29.92F
PITTSBURGH     CLOUDY    66  64  93 NE6       29.86F FOG
ROANOKE        CLOUDY    68  67  96 CALM      29.94S FOG
RICHMOND       CLOUDY    71  69  93 NW7       29.85S FOG
RALEIGH        PTCLDY    69  68  96 SW3       29.92R

$$

ANZ530>537-041000-
MARINE OBSERVATIONS

STATION/POSITION TIME  TEMP    WIND        PRES
                       AIR SEA DIR/SP/G
                 (UTC) (F)     (DEG/KT/KT) (MB)
THOMAS PT LIGHT  0800          110/  9       N/A
BALT KEY BRIDGE  0800   72     110/ 11/ 12 1012.2F
COVE POINT       0800   71     100/ 10/ 11 1012.0F
LEWISETTA        0800   75 79   80/ 12/ 15 1010.4F
SOLOMONS ISLAND  0800      79                N/A
PINEY POINT      0800          100/  8/ 12   N/A

$$



USA.gov is the U.S. government's official web portal to all federal, state and local government web resources and services.